When you browse on this site, cookies collect data to enhance your experience and personalize the content and advertising you see.
Visit our Privacy Policy to learn more. By continuing to use the site, you agree to this use of cookies and data.
  • In Romania
  • List of Countries
  • For 7 days
  • Water Temperature
  • Satellite Maps
  • Weather Map
  • Weather Widgets
  • user-avatar
    Login

    Hourly Weather Zyabrikovo

    Today, 21 November, Wednesday

    Time Temperature Precipitation Wind Pressure Humidity
    00:00 -5°C° 0 mm 3 mps 750 mmHg 82%
    01:00 -5°C° 0 mm 3 mps 750 mmHg 85%
    02:00 -5°C° 0 mm 3 mps 750 mmHg 87%
    03:00 -5°C° 0 mm 3 mps 750 mmHg 87%
    04:00 -4°C° 0 mm 3 mps 750 mmHg 87%
    05:00 -4°C° 0 mm 3 mps 750 mmHg 86%
    06:00 -4°C° 0 mm 3 mps 750 mmHg 87%
    07:00 -4°C° 0 mm 3 mps 750 mmHg 88%
    08:00 -3°C° 0 mm 2 mps 750 mmHg 88%
    09:00 -3°C° 0 mm 2 mps 751 mmHg 87%
    10:00 -3°C° 0 mm 2 mps 751 mmHg 86%
    11:00 -3°C° 0 mm 2 mps 751 mmHg 85%
    12:00 -3°C° 0 mm 2 mps 751 mmHg 85%
    13:00 -3°C° 0 mm 2 mps 751 mmHg 86%
    14:00 -3°C° 0 mm 2 mps 750 mmHg 86%
    15:00 -4°C° 0 mm 3 mps 750 mmHg 87%
    16:00 -4°C° 0 mm 3 mps 750 mmHg 89%
    17:00 -5°C° 0 mm 3 mps 750 mmHg 90%
    18:00 -4°C° 0 mm 3 mps 750 mmHg 89%
    19:00 -4°C° 0 mm 3 mps 749 mmHg 87%
    20:00 -4°C° 0 mm 4 mps 749 mmHg 86%
    21:00 -4°C° 0 mm 3 mps 749 mmHg 86%
    22:00 -4°C° 0 mm 3 mps 748 mmHg 86%
    23:00 -4°C° 0 mm 3 mps 748 mmHg 86%

    Tomorrow, 22 November, Thursday

    Time Temperature Precipitation Wind Pressure Humidity
    00:00 -4°C° 0 mm 3 mps 748 mmHg 86%
    01:00 -4°C° 0 mm 4 mps 747 mmHg 86%
    02:00 -5°C° 0 mm 4 mps 747 mmHg 87%
    03:00 -5°C° 0 mm 4 mps 747 mmHg 87%
    04:00 -5°C° 0 mm 4 mps 746 mmHg 87%
    05:00 -5°C° 0 mm 4 mps 746 mmHg 87%
    06:00 -5°C° 0 mm 4 mps 746 mmHg 87%
    07:00 -5°C° 0 mm 4 mps 745 mmHg 86%
    08:00 -5°C° 0 mm 4 mps 745 mmHg 85%
    09:00 -5°C° 0 mm 5 mps 745 mmHg 83%
    10:00 -5°C° 0 mm 5 mps 744 mmHg 81%
    11:00 -4°C° 0 mm 5 mps 744 mmHg 79%
    12:00 -4°C° 0 mm 5 mps 744 mmHg 79%
    13:00 -4°C° 0 mm 5 mps 744 mmHg 79%
    14:00 -2°C° 0 mm 5 mps 743 mmHg 79%
    15:00 -2°C° 0 mm 5 mps 743 mmHg 80%
    16:00 -2°C° 0 mm 5 mps 743 mmHg 81%
    17:00 -2°C° 0 mm 5 mps 743 mmHg 82%
    18:00 -2°C° 0 mm 5 mps 743 mmHg 82%
    19:00 -2°C° 0 mm 5 mps 743 mmHg 83%
    20:00 -2°C° 0 mm 5 mps 744 mmHg 83%
    21:00 -2°C° 0 mm 4 mps 744 mmHg 83%
    22:00 -2°C° 0 mm 4 mps 744 mmHg 84%
    23:00 -2°C° 0 mm 4 mps 745 mmHg 84%

    Day after tomorrow, 23 November, Friday

    Time Temperature Precipitation Wind Pressure Humidity
    00:00 -3°C° 0 mm 4 mps 745 mmHg 85%
    01:00 -4°C° 0 mm 3 mps 746 mmHg 87%
    02:00 -4°C° 0 mm 3 mps 746 mmHg 88%
    03:00 -5°C° 0 mm 3 mps 747 mmHg 89%
    04:00 -5°C° 0 mm 3 mps 747 mmHg 90%
    05:00 -5°C° 0 mm 2 mps 748 mmHg 91%
    06:00 -5°C° 0 mm 2 mps 748 mmHg 91%
    07:00 -5°C° 0 mm 2 mps 749 mmHg 90%
    08:00 -6°C° 0 mm 2 mps 749 mmHg 90%
    09:00 -5°C° 0 mm 2 mps 749 mmHg 86%
    10:00 -2°C° 0 mm 1 mps 750 mmHg 82%
    11:00 -1°C° 0 mm 1 mps 750 mmHg 78%
    12:00 -1°C° 0 mm 1 mps 750 mmHg 78%
    13:00 -3°C° 0 mm 2 mps 750 mmHg 78%
    14:00 -3°C° 0 mm 2 mps 750 mmHg 78%
    15:00 -3°C° 0 mm 2 mps 750 mmHg 81%
    16:00 -4°C° 0 mm 2 mps 749 mmHg 84%
    17:00 -4°C° 0 mm 2 mps 749 mmHg 88%
    18:00 -5°C° 0 mm 3 mps 749 mmHg 87%
    19:00 -4°C° 0 mm 3 mps 749 mmHg 86%
    20:00 -4°C° 0 mm 3 mps 748 mmHg 85%
    21:00 -4°C° 0 mm 3 mps 748 mmHg 84%
    22:00 -3°C° 0 mm 4 mps 747 mmHg 83%
    23:00 -3°C° 0 mm 4 mps 747 mmHg 82%

    24 November, Saturday

    Time Temperature Precipitation Wind Pressure Humidity
    00:00 -3°C° 0 mm 4 mps 747 mmHg 82%
    01:00 -3°C° 0 mm 4 mps 746 mmHg 81%
    02:00 -4°C° 0 mm 5 mps 746 mmHg 81%
    03:00 -4°C° 0 mm 5 mps 745 mmHg 80%
    04:00 -4°C° 0 mm 5 mps 745 mmHg 80%
    05:00 -4°C° 0 mm 5 mps 744 mmHg 79%
    06:00 -4°C° 0 mm 5 mps 744 mmHg 79%
    07:00 -5°C° 0 mm 5 mps 743 mmHg 79%
    08:00 -5°C° 0 mm 5 mps 743 mmHg 79%
    09:00 -5°C° 0 mm 5 mps 743 mmHg 78%
    10:00 -5°C° 0 mm 5 mps 742 mmHg 77%
    11:00 -5°C° 0 mm 5 mps 742 mmHg 76%
    12:00 -5°C° 0 mm 5 mps 742 mmHg 76%
    13:00 -4°C° 0 mm 4 mps 741 mmHg 76%
    14:00 -4°C° 0 mm 4 mps 741 mmHg 76%
    15:00 -4°C° 0 mm 4 mps 741 mmHg 78%
    16:00 -4°C° 0 mm 4 mps 740 mmHg 79%
    17:00 -5°C° 0 mm 4 mps 740 mmHg 80%
    18:00 -4°C° 0 mm 4 mps 740 mmHg 80%
    19:00 -4°C° 0 mm 4 mps 739 mmHg 81%
    20:00 -4°C° 0 mm 4 mps 739 mmHg 82%
    21:00 -4°C° 0.1 mm 4 mps 739 mmHg 83%
    22:00 -4°C° 0.1 mm 4 mps 739 mmHg 84%
    23:00 -4°C° 0.1 mm 4 mps 739 mmHg 85%

    25 November, Sunday

    Time Temperature Precipitation Wind Pressure Humidity
    00:00 -4°C° 0.1 mm 3 mps 739 mmHg 86%
    01:00 -4°C° 0.1 mm 3 mps 739 mmHg 87%
    02:00 -4°C° 0.1 mm 3 mps 739 mmHg 87%
    03:00 -4°C° 0 mm 3 mps 740 mmHg 88%
    04:00 -3°C° 0 mm 2 mps 740 mmHg 88%
    05:00 -3°C° 0 mm 2 mps 740 mmHg 88%
    06:00 -3°C° 0 mm 2 mps 740 mmHg 89%
    07:00 -3°C° 0 mm 2 mps 741 mmHg 91%
    08:00 -4°C° 0 mm 2 mps 741 mmHg 92%
    09:00 -3°C° 0 mm 2 mps 741 mmHg 89%
    10:00 -3°C° 0 mm 2 mps 741 mmHg 86%
    11:00 -3°C° 0 mm 2 mps 742 mmHg 83%
    12:00 -1°C° 0 mm 1 mps 742 mmHg 83%
    13:00 -1°C° 0 mm 1 mps 742 mmHg 84%
    14:00 -1°C° 0 mm 1 mps 742 mmHg 85%
    15:00 -2°C° 0 mm 1 mps 742 mmHg 87%
    16:00 -3°C° 0 mm 1 mps 742 mmHg 89%
    17:00 -3°C° 0 mm 1 mps 742 mmHg 91%
    18:00 -3°C° 0 mm 1 mps 741 mmHg 92%
    19:00 -5°C° 0 mm 0 mps 741 mmHg 92%
    20:00 -5°C° 0 mm 0 mps 741 mmHg 92%
    21:00 -5°C° 0 mm 0 mps 741 mmHg 92%
    22:00 -5°C° 0 mm 0 mps 740 mmHg 92%
    23:00 -4°C° 0 mm 1 mps 740 mmHg 92%

    26 November, Monday

    Time Temperature Precipitation Wind Pressure Humidity
    00:00 -5°C° 0 mm 0 mps 740 mmHg 92%
    01:00 -5°C° 0 mm 0 mps 739 mmHg 92%
    02:00 -5°C° 0 mm 0 mps 739 mmHg 91%
    03:00 -5°C° 0 mm 0 mps 739 mmHg 92%
    04:00 -4°C° 0 mm 1 mps 738 mmHg 92%
    05:00 -4°C° 0 mm 1 mps 738 mmHg 92%
    06:00 -4°C° 0 mm 1 mps 738 mmHg 92%
    07:00 -4°C° 0 mm 1 mps 738 mmHg 93%
    08:00 -4°C° 0 mm 1 mps 738 mmHg 93%
    09:00 -6°C° 0 mm 2 mps 738 mmHg 89%
    10:00 -5°C° 0 mm 2 mps 738 mmHg 86%
    11:00 -6°C° 0 mm 3 mps 738 mmHg 83%
    12:00 -6°C° 0 mm 3 mps 738 mmHg 81%
    13:00 -5°C° 0 mm 3 mps 738 mmHg 79%
    14:00 -5°C° 0 mm 3 mps 738 mmHg 77%
    15:00 -6°C° 0 mm 3 mps 738 mmHg 78%
    16:00 -6°C° 0 mm 3 mps 739 mmHg 78%
    17:00 -6°C° 0 mm 3 mps 739 mmHg 79%
    18:00 -7°C° 0 mm 3 mps 739 mmHg 81%
    19:00 -6°C° 0 mm 2 mps 739 mmHg 83%
    20:00 -7°C° 0 mm 2 mps 739 mmHg 86%
    21:00 -7°C° 0 mm 2 mps 740 mmHg 87%
    22:00 -8°C° 0 mm 2 mps 740 mmHg 88%
    23:00 -8°C° 0 mm 2 mps 740 mmHg 89%
    Show more